Regional Weather Roundup
Issued by NWS

Home | Current Version | Previous Version | Graphics & Text | Print | Product List | Glossary On
Versions: 1 2 3 4 5 6 7 8 9 10 11 12 13 14 15 16 17 18 19 20 21 22 23 24 25 26 27 28 29 30 31 32 33 34 35 36 37 38 39 40 41 42 43 44 45 46 47 48 49 50
000
ASUS43 KIND 270709
RWRIN

WEATHER ROUNDUP FOR INDIANA
NATIONAL WEATHER SERVICE INDIANAPOLIS IN
200 AM EST THU NOV 27 2014

NOTE: "FAIR" INDICATES FEW OR NO CLOUDS BELOW 12,000 FEET WITH NO
SIGNIFICANT WEATHER AND/OR OBSTRUCTIONS TO VISIBILITY.

* - STATION DOES NOT REPORT WEATHER SUCH AS PRECIPITATION OR FOG.

+ - STATION NOT QUALITY CONTROLLED BY THE NATIONAL WEATHER SERVICE.
    USE DATA WITH CAUTION...ESPECIALLY DEWPOINT AND RELATIVE
    HUMIDITY OBSERVATIONS.

INZ001>003-010>013-019-020-270800-
NORTHWEST INDIANA

CITY           SKY/WX    TMP DP  RH WIND       PRES   REMARKS
GARY /AIRPORT/ CLOUDY    31  27  83 W7        30.18S HAZE    WCI  24
KNOX *+        CLOUDY    27  22  83 CALM      30.15F
LA PORTE +     CLOUDY    29  24  82 W6        30.16S WCI  23
MICHIGAN CITY+ CLOUDY    28  21  74 SW3       30.17S
MONTICELLO +   MOCLDY    24  21  87 NW7       30.17R WCI  16
RENSSELAER +   CLOUDY    28  27  93 NW6       30.18S WCI  22
VALPARAISO     CLOUDY    27  22  81 W7        30.17S WCI  19

$$

LMZ046-743>745-270800-
SOUTHERN LAKE MICHIGAN

STATION/POSITION TIME  TEMP WIND        PRES
                       AIR  DIR/SP/G
                 (UTC) (F)  (DEG/KT/KT) (MB)
MICHIGAN CITY    0700   28  200/  6/  7   N/A

$$

INZ004-005-014>016-021>024-270800-
NORTH CENTRAL INDIANA

CITY           SKY/WX    TMP DP  RH WIND       PRES   REMARKS
GOSHEN         CLOUDY    28  21  75 N3        30.13S
LOGANSPORT +   MOCLDY    27  21  80 NW6       30.16R WCI  20
PERU/GRISSOM   CLOUDY    28  23  83 NW7       30.14R WCI  20
ROCHESTER +    MOCLDY    30  23  74 NW7       30.15S WCI  23
SOUTH BEND     CLOUDY    28  22  78 SE5       30.14F WCI  23
WARSAW +       CLOUDY    28  23  80 NW7       30.14R WCI  21

$$

INZ006>009-017-018-025>027-270800-
NORTHEAST INDIANA

CITY           SKY/WX    TMP DP  RH WIND       PRES   REMARKS
ANGOLA *+      CLOUDY    27  16  63 N6        30.10S WCI  20
AUBURN +       CLOUDY    30  23  74 NW6       30.11S WCI  24
FORT WAYNE     CLOUDY    28  22  78 NW7       30.12S WCI  21
HUNTINGTON +   CLOUDY    28  22  81 N3        30.12S

$$

INZ028-029-035-036-043>045-051>053-270800-
WEST CENTRAL INDIANA

CITY           SKY/WX    TMP DP  RH WIND       PRES   REMARKS
GREENCASTLE +  CLOUDY    28  23  80 N9        30.14S WCI  20
LAFAYETTE      PTCLDY    25  19  78 NW6       30.17R WCI  18
TERRE HAUTE    CLOUDY    29  23  78 N7        30.17R WCI  22

$$

INZ030>032-037>040-046>048-054>057-064-065-270800-
CENTRAL INDIANA

CITY           SKY/WX    TMP DP  RH WIND       PRES   REMARKS
CP ATTERBURY + CLOUDY    30  25  80 N9        30.13R WCI  22
FRANKFORT +    CLOUDY    28  22  79 NW9       30.16R WCI  19
INDIANAPOLIS   CLOUDY    28  21  75 N10       30.12R WCI  19
-EAGLE CREEK   CLOUDY    28  21  75 N9        30.12R WCI  19
KOKOMO *+      CLOUDY    28  19  69 N9        30.14R WCI  20
MARION +         N/A     28  21  77 N6        30.13R WCI  21
MT COMFORT *+  CLOUDY    28  18  64 N14       30.12R WCI  17
SHELBYVILLE    CLOUDY    30  23  75 N10       30.11R WCI  21
ZIONSVILLE +   CLOUDY    28  20  72 N8        30.13R WCI  20

$$

INZ033-034-041-042-049-050-058-059-270800-
EAST CENTRAL INDIANA

CITY           SKY/WX    TMP DP  RH WIND       PRES   REMARKS
MUNCIE         CLOUDY    28  22  78 N9        30.10R WCI  19

$$

INZ060-061-067>069-081>083-085>088-270800-
SOUTHWEST INDIANA

CITY           SKY/WX    TMP DP  RH WIND       PRES   REMARKS
EVANSVILLE     LGT SNOW  33  30  88 N10       30.15R FOG     WCI  25
HUNTINGBURG *+ CLOUDY    32  28  86 N8        30.12R WCI  25
WASHINGTON +   LGT SNOW  32  32 100 N10       30.14R WCI  23

$$

INZ062-063-066-070>080-084-089>092-270800-
SOUTH CENTRAL AND SOUTHEAST INDIANA

CITY           SKY/WX    TMP DP  RH WIND       PRES   REMARKS
BLOOMINGTON    CLOUDY    29  24  82 N9        30.12R WCI  20
SEYMOUR +      CLOUDY    32  25  74 N10       30.11  WCI  24

$$




USA.gov is the U.S. government's official web portal to all federal, state and local government web resources and services.